Change the Weather History Date:

Friday, February 28, 2014

  Actual Average Record
Temperature  
Mean Temperature 45 °F 53 °F  
Max Temperature 62 °F 64 °F 87 °F (1918)
Min Temperature 28 °F 42 °F 18 °F (2002)
Degree Days  
Heating Degree Days 20 12  
Month to date heating degree days 483 437  
Since 1 July heating degree days 2266 1992  
Cooling Degree Days 0 0  
Month to date cooling degree days 6 6  
Year to date cooling degree days 6 10  
Moisture  
Dew Point 27 °F    
Average Humidity 51    
Maximum Humidity 78    
Minimum Humidity 23    
Precipitation  
Precipitation T in 0.16 in 1.41 in (1916)
Month to date precipitation 5.44 4.76  
Year to date precipitation 7.05 9.73  
Sea Level Pressure  
Sea Level Pressure 30.02 in    
Wind  
Wind Speed 8 mph (SSE)    
Max Wind Speed 20 mph    
Max Gust Speed 24 mph    
Visibility 10 miles    
Events      
T = Trace of Precipitation, MM = Missing Value Source: NWS Daily Summary

Daily Weather History Graph

Daily Weather History Graph

Search for Another Location

Airport or City:

Trip Planner

Search our weather history database for the weather conditions in past years. The results will help you decide how hot, cold, wet, or windy it might be!

Date:

Astronomy

Feb. 28, 2014 Rise Set
Actual Time 6:28 AM CST 5:57 PM CST
Civil Twilight 6:04 AM CST 6:21 PM CST
Nautical Twilight 5:35 AM CST 6:50 PM CST
Astronomical Twilight 5:07 AM CST 7:18 PM CST
Moon 5:42 AM CST (2/28) 5:33 PM CST (2/28)
Length of Visible Light 12h 17m
Length of Day
11h 28m
Waning Crescent, 1% of the Moon is Illuminated
Feb 28
Waning Crescent
Mar 1
New
Mar 8
First Quarter
Mar 16
Full
Mar 23
Last Quarter

Hourly Weather History & Observations

Time (CST) Temp. Windchill Dew Point Humidity Pressure Visibility Wind Dir Wind Speed Gust Speed Precip Events Conditions
12:54 AM 30.0 °F - 21.9 °F 72% 30.04 in 10.0 mi Calm Calm - N/A   Clear
1:54 AM 30.0 °F - 23.0 °F 75% 30.01 in 10.0 mi Calm Calm - N/A   Clear
2:54 AM 33.1 °F - 23.0 °F 66% 30.02 in 10.0 mi Calm Calm - N/A   Clear
3:54 AM 32.0 °F - 24.1 °F 73% 30.01 in 10.0 mi Calm Calm - N/A   Clear
4:54 AM 32.0 °F 28.7 °F 26.1 °F 79% 30.02 in 10.0 mi SSE 3.5 mph - N/A   Scattered Clouds
5:54 AM 35.1 °F 31.0 °F 26.1 °F 70% 30.04 in 10.0 mi ESE 4.6 mph - 0.00 in   Mostly Cloudy
6:54 AM 35.1 °F 32.2 °F 23.0 °F 61% 30.06 in 10.0 mi ESE 3.5 mph - N/A   Mostly Cloudy
7:54 AM 39.9 °F 33.4 °F 25.0 °F 55% 30.08 in 10.0 mi SSE 10.4 mph - N/A   Scattered Clouds
8:54 AM 46.9 °F - 21.0 °F 36% 30.08 in 10.0 mi SE 10.4 mph - N/A   Scattered Clouds
9:54 AM 52.0 °F - 19.9 °F 28% 30.06 in 10.0 mi SE 12.7 mph - N/A   Clear
10:54 AM 54.0 °F - 21.0 °F 28% 30.07 in 10.0 mi SE 11.5 mph - N/A   Partly Cloudy
11:54 AM 57.9 °F - 21.0 °F 24% 30.05 in 10.0 mi ESE 8.1 mph - N/A   Scattered Clouds
12:54 PM 57.9 °F - 19.0 °F 22% 30.02 in 10.0 mi South 11.5 mph - N/A   Mostly Cloudy
1:54 PM 57.9 °F - 21.9 °F 25% 30.02 in 10.0 mi SSE 8.1 mph - N/A   Mostly Cloudy
2:54 PM 59.0 °F - 24.1 °F 26% 29.96 in 10.0 mi SSE 13.8 mph - 0.00 in   Mostly Cloudy
3:54 PM 59.0 °F - 25.0 °F 27% 29.99 in 10.0 mi South 9.2 mph - N/A   Mostly Cloudy
4:54 PM 59.0 °F - 28.0 °F 31% 29.94 in 10.0 mi SSE 15.0 mph - N/A   Overcast
5:54 PM 57.9 °F - 30.9 °F 36% 29.95 in 10.0 mi SSE 10.4 mph - N/A   Overcast
6:54 PM 57.9 °F - 33.1 °F 39% 29.97 in 10.0 mi South 8.1 mph - N/A   Overcast
7:54 PM 57.0 °F - 34.0 °F 42% 29.99 in 10.0 mi South 6.9 mph - N/A   Overcast
8:54 PM 57.0 °F - 36.0 °F 45% 30.00 in 10.0 mi South 9.2 mph - N/A   Overcast
9:54 PM 55.9 °F - 39.0 °F 53% 30.03 in 10.0 mi South 11.5 mph - N/A   Overcast
10:54 PM 55.0 °F - 41.0 °F 59% 30.04 in 10.0 mi South 9.2 mph - N/A   Overcast
11:54 PM 54.0 °F - 42.1 °F 64% 30.04 in 10.0 mi South 10.4 mph - N/A   Mostly Cloudy